When you browse on this site, cookies collect data to enhance your experience and personalize the content and advertising you see.
Visit our Privacy Policy to learn more. By continuing to use the site, you agree to this use of cookies and data.
  • In Czech Republic
  • List of Countries
  • For 7 days
  • Water Temperature
  • Satellite Maps
  • Weather Map
  • Weather Widgets
  • user-avatar
    Login

    Hourly Weather Bogorodchany

    Today, 10 December, Monday

    Time Temperature Precipitation Wind Pressure Humidity
    00:00 +4°C° 0 mm 1 mps 720 mmHg 77%
    01:00 +3°C° 0 mm 1 mps 720 mmHg 79%
    02:00 +2°C° 0 mm 0 mps 721 mmHg 86%
    03:00 +1°C° 0 mm 2 mps 720 mmHg 95%
    04:00 +2°C° 0 mm 1 mps 720 mmHg 92%
    05:00 +2°C° 0 mm 1 mps 720 mmHg 95%
    06:00 +2°C° 0 mm 1 mps 720 mmHg 96%
    07:00 +1°C° 0 mm 0 mps 721 mmHg 92%
    08:00 +1°C° 0 mm 0 mps 721 mmHg 92%
    09:00 +1°C° 0.2 mm 2 mps 721 mmHg 100%
    10:00 +2°C° 0.2 mm 1 mps 722 mmHg 100%
    11:00 +3°C° 0 mm 1 mps 722 mmHg 99%
    12:00 +4°C° 0 mm 1 mps 722 mmHg 94%
    13:00 +6°C° 0 mm 1 mps 722 mmHg 90%
    14:00 +4°C° 0 mm 3 mps 722 mmHg 86%
    15:00 +4°C° 0 mm 4 mps 723 mmHg 86%
    16:00 +3°C° 0 mm 3 mps 723 mmHg 91%
    17:00 +2°C° 0 mm 3 mps 723 mmHg 94%
    18:00 +1°C° 0 mm 3 mps 724 mmHg 99%
    19:00 +1°C° 0 mm 3 mps 724 mmHg 99%
    20:00 0°C° 0 mm 3 mps 724 mmHg 95%
    21:00 +1°C° 0 mm 2 mps 724 mmHg 94%
    22:00 0°C° 0 mm 3 mps 724 mmHg 93%
    23:00 0°C° 0 mm 3 mps 724 mmHg 92%

    Tomorrow, 11 December, Tuesday

    Time Temperature Precipitation Wind Pressure Humidity
    00:00 -1°C° 0 mm 3 mps 725 mmHg 93%
    01:00 -1°C° 0 mm 3 mps 725 mmHg 94%
    02:00 -1°C° 0 mm 2 mps 725 mmHg 94%
    03:00 -1°C° 0 mm 2 mps 725 mmHg 94%
    04:00 -1°C° 0 mm 2 mps 725 mmHg 94%
    05:00 -1°C° 0 mm 2 mps 725 mmHg 97%
    06:00 -1°C° 0 mm 2 mps 725 mmHg 97%
    07:00 +1°C° 0 mm 1 mps 725 mmHg 96%
    08:00 -1°C° 0 mm 2 mps 726 mmHg 96%
    09:00 +1°C° 0 mm 1 mps 726 mmHg 95%
    10:00 0°C° 0 mm 0 mps 726 mmHg 95%
    11:00 +1°C° 0 mm 0 mps 726 mmHg 93%
    12:00 +3°C° 0 mm 1 mps 727 mmHg 90%
    13:00 +2°C° 0 mm 2 mps 727 mmHg 86%
    14:00 +3°C° 0 mm 2 mps 727 mmHg 85%
    15:00 +2°C° 0 mm 2 mps 727 mmHg 90%
    16:00 +1°C° 0 mm 2 mps 727 mmHg 96%
    17:00 +1°C° 0 mm 1 mps 727 mmHg 100%
    18:00 +1°C° 0 mm 1 mps 727 mmHg 100%
    19:00 +1°C° 0 mm 1 mps 727 mmHg 100%
    20:00 +1°C° 0 mm 1 mps 727 mmHg 100%
    21:00 0°C° 0 mm 1 mps 727 mmHg 100%
    22:00 -1°C° 0 mm 0 mps 727 mmHg 100%
    23:00 0°C° 0 mm 1 mps 728 mmHg 100%

    Day after tomorrow, 12 December, Wednesday

    Time Temperature Precipitation Wind Pressure Humidity
    00:00 -1°C° 0 mm 1 mps 728 mmHg 100%
    01:00 -2°C° 0 mm 0 mps 727 mmHg 100%
    02:00 -2°C° 0 mm 0 mps 728 mmHg 100%
    03:00 -3°C° 0 mm 0 mps 728 mmHg 100%
    04:00 -3°C° 0 mm 0 mps 727 mmHg 100%
    05:00 -3°C° 0 mm 0 mps 727 mmHg 100%
    06:00 -3°C° 0 mm 0 mps 727 mmHg 100%
    07:00 -2°C° 0 mm 1 mps 728 mmHg 100%
    08:00 -3°C° 0 mm 0 mps 728 mmHg 100%
    09:00 -3°C° 0 mm 2 mps 728 mmHg 100%
    10:00 -2°C° 0 mm 3 mps 728 mmHg 97%
    11:00 -3°C° 0 mm 4 mps 728 mmHg 97%
    12:00 -2°C° 0 mm 5 mps 728 mmHg 95%
    13:00 -3°C° 0 mm 6 mps 728 mmHg 96%
    14:00 -3°C° 0 mm 6 mps 727 mmHg 96%
    15:00 -3°C° 0 mm 6 mps 727 mmHg 96%
    16:00 -4°C° 0 mm 6 mps 727 mmHg 96%
    17:00 -4°C° 0 mm 7 mps 727 mmHg 96%
    18:00 -4°C° 0 mm 7 mps 727 mmHg 97%
    19:00 -4°C° 0.4 mm 7 mps 727 mmHg 99%
    20:00 -4°C° 0.6 mm 7 mps 727 mmHg 99%
    21:00 -6°C° 0.6 mm 7 mps 726 mmHg 99%
    22:00 -6°C° 0.6 mm 7 mps 726 mmHg 99%
    23:00 -6°C° 0.8 mm 7 mps 726 mmHg 99%

    13 December, Thursday

    Time Temperature Precipitation Wind Pressure Humidity
    00:00 -6°C° 1 mm 7 mps 726 mmHg 99%
    01:00 -6°C° 1.1 mm 7 mps 726 mmHg 99%
    02:00 -5°C° 1.1 mm 6 mps 726 mmHg 99%
    03:00 -5°C° 0.9 mm 6 mps 726 mmHg 99%
    04:00 -5°C° 0.7 mm 6 mps 726 mmHg 99%
    05:00 -5°C° 0.5 mm 6 mps 726 mmHg 100%
    06:00 -5°C° 0.4 mm 5 mps 726 mmHg 100%
    07:00 -5°C° 0.3 mm 5 mps 726 mmHg 100%
    08:00 -4°C° 0.2 mm 4 mps 726 mmHg 100%
    09:00 -4°C° 0.2 mm 4 mps 726 mmHg 100%
    10:00 -4°C° 0.1 mm 4 mps 726 mmHg 100%
    11:00 -3°C° 0.1 mm 4 mps 726 mmHg 99%
    12:00 -4°C° 0 mm 5 mps 727 mmHg 98%
    13:00 -4°C° 0 mm 5 mps 726 mmHg 98%
    14:00 -3°C° 0 mm 4 mps 727 mmHg 98%
    15:00 -3°C° 0 mm 4 mps 727 mmHg 98%
    16:00 -4°C° 0 mm 3 mps 727 mmHg 99%
    17:00 -4°C° 0.1 mm 4 mps 727 mmHg 100%
    18:00 -5°C° 0.1 mm 5 mps 727 mmHg 99%
    19:00 -4°C° 0.1 mm 4 mps 728 mmHg 100%
    20:00 -4°C° 0 mm 4 mps 728 mmHg 100%
    21:00 -5°C° 0 mm 3 mps 729 mmHg 100%
    22:00 -5°C° 0 mm 3 mps 729 mmHg 100%
    23:00 -5°C° 0 mm 3 mps 729 mmHg 100%

    14 December, Friday

    Time Temperature Precipitation Wind Pressure Humidity
    00:00 -6°C° 0 mm 3 mps 730 mmHg 100%
    01:00 -7°C° 0 mm 3 mps 730 mmHg 100%
    02:00 -7°C° 0 mm 3 mps 730 mmHg 100%

    15 December, Saturday

    Time Temperature Precipitation Wind Pressure Humidity
    Show more